Weather History for KEUG - March, 2013

Change the Weather History Date:

Tuesday, March 26, 2013

  Actual Average Record
Temperature  
Mean Temperature 51 °F 48 °F  
Max Temperature 56 °F 58 °F 72 °F (1969)
Min Temperature 45 °F 38 °F 24 °F (1913)
Degree Days  
Heating Degree Days 14 17  
Month to date heating degree days 482 483  
Since 1 July heating degree days 3574 3810  
Cooling Degree Days 0 0  
Month to date cooling degree days 0 0  
Year to date cooling degree days 0 0  
Moisture  
Dew Point 43 °F    
Average Humidity 79    
Maximum Humidity 92    
Minimum Humidity 66    
Precipitation  
Precipitation 0.05 in 0.15 in 1.42 in (1962)
Month to date precipitation 2.01 4.24  
Year to date precipitation 4.97 16.54  
Snow  
Snow 0.00 in - - ()
Month to date snowfall 0.0  
Since 1 July snowfall 0.0  
Snow Depth 0.00 in    
Sea Level Pressure  
Sea Level Pressure 30.00 in    
Wind  
Wind Speed 4 mph (SSW)    
Max Wind Speed 8 mph    
Max Gust Speed 9 mph    
Visibility 8 miles    
Events Rain    
T = Trace of Precipitation, MM = Missing Value Source: NWS Daily Summary

Daily Weather History Graph

Daily Weather History Graph

Search for Another Location

Airport or City:

Trip Planner

Search our weather history database for the weather conditions in past years. The results will help you decide how hot, cold, wet, or windy it might be!

Date:

Astronomy

Mar. 26, 2013 Rise Set
Actual Time 7:04 AM PDT 7:33 PM PDT
Civil Twilight 6:35 AM PDT 8:02 PM PDT
Nautical Twilight 6:01 AM PDT 8:36 PM PDT
Astronomical Twilight 5:25 AM PDT 9:11 PM PDT
Moon 7:16 PM PDT (3/26) 6:24 AM PDT (3/26)
Length of Visible Light 13h 26m
Length of Day
12h 28m
Full, 100% of the Moon is Illuminated
Mar 26
Full
Mar 27
Full
Apr 2
Last Quarter
Apr 10
New
Apr 18
First Quarter

Hourly Weather History & Observations

Time (PDT) Temp. Windchill Dew Point Humidity Pressure Visibility Wind Dir Wind Speed Gust Speed Precip Events Conditions
12:54 AM 46.0 °F 42.5 °F 43.0 °F 89% 30.00 in 10.0 mi SSW 6.9 mph - 0.01 in   Overcast
1:54 AM 46.0 °F 42.5 °F 43.0 °F 89% 30.00 in 10.0 mi SSW 6.9 mph - N/A   Overcast
2:54 AM 46.0 °F 42.5 °F 43.0 °F 89% 30.00 in 10.0 mi SW 6.9 mph - N/A   Overcast
3:54 AM 45.0 °F 41.8 °F 43.0 °F 93% 30.00 in 8.0 mi SSW 5.8 mph - N/A   Overcast
4:44 AM 44.6 °F 41.4 °F 42.8 °F 93% 30.00 in 9.0 mi South 5.8 mph - 0.01 in   Overcast
4:54 AM 45.0 °F 41.8 °F 43.0 °F 93% 30.01 in 8.0 mi South 5.8 mph - 0.01 in   Overcast
5:41 AM 44.6 °F 41.4 °F 42.8 °F 93% 30.01 in 6.0 mi South 5.8 mph - 0.01 in   Overcast
5:54 AM 45.0 °F 41.8 °F 43.0 °F 93% 30.01 in 7.0 mi South 5.8 mph - 0.02 in Rain Light Rain
6:03 AM 44.6 °F 41.4 °F 42.8 °F 93% 30.01 in 7.0 mi South 5.8 mph - 0.00 in Rain Light Rain
6:54 AM 45.0 °F 41.8 °F 43.0 °F 93% 30.02 in 7.0 mi South 5.8 mph - 0.01 in Rain Light Rain
7:54 AM 45.0 °F 43.5 °F 43.0 °F 93% 30.02 in 9.0 mi South 3.5 mph - 0.01 in Rain Light Rain
8:54 AM 46.0 °F 44.8 °F 43.0 °F 89% 30.03 in 7.0 mi South 3.5 mph - 0.00 in Rain Light Rain
9:35 AM 46.4 °F 45.2 °F 44.6 °F 93% 30.03 in 8.0 mi South 3.5 mph - 0.00 in   Overcast
9:54 AM 46.9 °F - 44.1 °F 90% 30.03 in 9.0 mi Calm Calm - 0.00 in Rain Light Rain
10:46 AM 48.2 °F - 44.6 °F 87% 30.03 in 9.0 mi SSW 3.5 mph - 0.00 in   Overcast
10:54 AM 48.0 °F - 44.1 °F 86% 30.04 in 9.0 mi Calm Calm - 0.00 in   Overcast
11:16 AM 48.2 °F - 44.6 °F 87% 30.03 in 9.0 mi Calm Calm - N/A   Overcast
11:54 AM 48.9 °F - 44.1 °F 83% 30.03 in 9.0 mi Calm Calm - N/A   Overcast
12:40 PM 51.8 °F - 44.6 °F 76% 30.02 in 10.0 mi Calm Calm - N/A   Overcast
12:54 PM 51.1 °F - 44.1 °F 77% 30.03 in 10.0 mi Calm Calm - N/A   Overcast
1:54 PM 53.1 °F - 44.1 °F 71% 30.02 in 10.0 mi West 3.5 mph - N/A   Overcast
2:42 PM 55.4 °F - 44.6 °F 67% 30.00 in 10.0 mi North 3.5 mph - N/A   Overcast
2:54 PM 55.0 °F - 44.1 °F 67% 30.00 in 10.0 mi East 3.5 mph - N/A   Mostly Cloudy
3:54 PM 54.0 °F - 43.0 °F 66% 30.00 in 10.0 mi Calm Calm - 0.00 in Rain Light Rain
4:54 PM 54.0 °F - 44.1 °F 69% 29.99 in 10.0 mi ESE 4.6 mph - 0.00 in   Overcast
5:54 PM 53.1 °F - 43.0 °F 69% 29.98 in 10.0 mi Calm Calm - N/A   Overcast
6:54 PM 53.1 °F - 44.1 °F 71% 29.98 in 10.0 mi Calm Calm - N/A   Overcast
7:54 PM 51.1 °F - 45.0 °F 80% 29.98 in 10.0 mi NW 3.5 mph - N/A   Mostly Cloudy
8:54 PM 48.0 °F - 45.0 °F 89% 29.99 in 10.0 mi Calm Calm - N/A   Scattered Clouds
9:54 PM 46.0 °F - 42.1 °F 86% 29.98 in 10.0 mi Calm Calm - N/A   Scattered Clouds
10:51 PM 42.8 °F - 41.0 °F 93% 29.98 in 1.0 mi Calm Calm - N/A   Mostly Cloudy
10:54 PM 43.0 °F - 41.0 °F 93% 29.99 in 1.0 mi Calm Calm - N/A   Mostly Cloudy
11:37 PM 42.8 °F 41.1 °F 42.8 °F 100% 29.97 in 2.0 mi South 3.5 mph - N/A   Mostly Cloudy
11:45 PM 44.6 °F - 42.8 °F 93% 29.97 in 7.0 mi Calm Calm - N/A   Mostly Cloudy
11:54 PM 43.0 °F - 41.0 °F 93% 29.98 in 10.0 mi Calm Calm - N/A   Mostly Cloudy